CAPE
14 5 9 9 5 2 1 1 2 0 0 6 30 23 29 18 27 26 43 42 48 55 58 72 67 50 34 40 39 59 67 50 52
4 7 7 5 4 0 0 0 0 0 20 14 20 17 5 7 7 8 28 38 52 58 49 50 46 49 24 21 11 6 23 32 47
7 5 4 1 0 0 0 0 0 4 26 25 16 6 1 0 0 7 45 62 71 54 38 16 11 11 16 9 3 0 1 7 15
7 4 3 3 2 0 0 0 0 27 29 21 11 1 0 0 0 2 35 59 48 31 13 13 14 8 5 1 3 3 7 5 3
7 4 6 5 1 0 0 0 2 9 4 9 3 0 0 0 0 0 3 47 55 27 17 6 4 1 6 10 10 9 9 8 7
0 0 2 6 1 0 0 0 0 0 0 0 0 0 0 0 0 1 8 18 24 3 4 10 8 10 8 8 8 9 6 5 5
0 0 0 0 0 0 0 0 0 0 0 0 0 0 0 0 0 2 13 11 15 9 13 4 8 7 5 4 4 4 4 4 5
0 0 0 0 0 0 0 0 0 0 0 0 0 0 0 0 0 4 9 13 18 11 2 4 7 3 3 4 2 2 2 2 3
0 0 0 0 0 0 0 0 0 0 0 0 0 0 0 0 0 1 6 11 12 12 8 15 8 6 4 4 4 5 5 4 2
0 0 0 0 0 0 0 0 0 0 0 0 0 0 0 0 0 0 0 4 5 8 13 13 10 9 7 5 4 3 4 4 5
0 0 0 0 0 0 0 0 0 0 0 0 0 0 0 0 0 0 0 0 1 5 7 10 10 6 4 8 2 1 0 1 1
0 0 0 0 0 0 0 0 0 0 0 0 0 0 0 0 0 0 0 0 0 0 0 1 6 5 3 1 0 0 0 0 1
0 0 0 0 0 0 0 0 0 0 0 0 0 0 0 0 0 0 0 0 0 0 0 0 0 0 0 0 1 1 1 1 0
0 0 0 0 0 0 0 0 0 0 0 0 0 0 0 0 0 0 0 0 0 0 0 0 0 0 0 0 0 0 0 0 0
0 0 0 0 0 0 0 0 0 0 0 0 0 0 0 0 0 0 0 0 0 0 0 0 0 0 0 0 0 0 0 0 0
0 0 0 0 0 0 0 0 0 0 0 0 0 0 0 0 0 0 0 0 0 0 0 0 0 0 0 0 0 0 0 0 0
0 0 0 0 0 0 0 0 0 0 0 0 0 0 0 0 0 0 0 0 0 0 0 0 0 0 0 0 0 0 0 0 0
0 0 0 0 0 0 0 0 0 0 0 0 0 0 0 0 0 0 0 0 0 0 0 0 0 0 0 0 0 0 0 0 0
0 0 0 0 0 0 0 0 0 0 0 0 0 0 0 0 0 0 0 0 0 0 0 0 0 0 0 0 0 0 0 0 0
0 0 0 0 0 0 0 0 0 0 0 0 0 0 0 0 0 0 0 0 0 0 0 0 0 0 0 0 0 0 0 0 0
CIN
-1 0 0 0 0 0 0 0 0 0 0 -5 -8 -13 -22 -21 -22 -8 -2 -2 0 0 0 0 0 0 0 -3 0 0 0 0 0
0 0 0 0 0 0 0 0 0 0 -2 -5 -10 -18 -25 -12 -19 -17 -4 -5 0 0 0 0 0 0 0 -2 -3 -1 0 0 0
0 0 0 0 0 0 0 0 0 -4 -6 -6 -26 -29 -13 0 -2 -19 -4 0 0 0 0 0 0 0 -2 -1 -2 0 0 -1 -3
-1 0 0 0 -1 0 0 0 0 -9 -11 -14 -19 -17 -1 0 0 -10 -10 -1 0 0 0 -2 -3 -1 -2 -1 0 -1 0 0 0
0 -1 0 0 0 0 0 0 -3 -20 -13 -18 -25 0 0 0 0 0 -9 -1 0 -1 -2 0 -3 -1 0 0 0 0 0 -1 0
0 0 -1 0 0 0 0 0 0 0 0 0 0 0 0 0 0 -2 -1 -4 -5 -2 0 0 0 0 -1 0 0 0 0 0 0
0 0 0 0 0 0 0 0 0 0 0 0 0 0 0 0 0 -4 0 0 0 -1 0 -2 -1 -1 0 0 -1 -1 -1 0 0
0 0 0 0 0 0 0 0 0 0 0 0 0 0 0 0 0 -4 -1 0 0 0 -1 -1 -1 0 -1 -1 0 0 0 0 0
0 0 0 0 0 0 0 0 0 0 0 0 0 0 0 0 0 -3 -2 -1 0 0 -2 0 0 -1 -1 -1 0 0 0 0 0
0 0 0 0 0 0 0 0 0 0 0 0 0 0 0 0 0 0 0 -2 0 0 -1 -1 0 0 -1 0 0 0 0 0 0
0 0 0 0 0 0 0 0 0 0 0 0 0 0 0 0 0 0 0 0 -1 0 -1 0 -1 -1 0 0 0 0 0 0 0
0 0 0 0 0 0 0 0 0 0 0 0 0 0 0 0 0 0 0 0 0 0 0 0 0 0 0 0 0 0 0 0 0
0 0 0 0 0 0 0 0 0 0 0 0 0 0 0 0 0 0 0 0 0 0 0 0 0 0 0 0 0 0 0 0 0
0 0 0 0 0 0 0 0 0 0 0 0 0 0 0 0 0 0 0 0 0 0 0 0 0 0 0 0 0 0 0 0 0
0 0 0 0 0 0 0 0 0 0 0 0 0 0 0 0 0 0 0 0 0 0 0 0 0 0 0 0 0 0 0 0 0
0 0 0 0 0 0 0 0 0 0 0 0 0 0 0 0 0 0 0 0 0 0 0 0 0 0 0 0 0 0 0 0 0
0 0 0 0 0 0 0 0 0 0 0 0 0 0 0 0 0 0 0 0 0 0 0 0 0 0 0 0 0 0 0 0 0
0 0 0 0 0 0 0 0 0 0 0 0 0 0 0 0 0 0 0 0 0 0 0 0 0 0 0 0 0 0 0 0 0
0 0 0 0 0 0 0 0 0 0 0 0 0 0 0 0 0 0 0 0 0 0 0 0 0 0 0 0 0 0 0 0 0
0 0 0 0 0 0 0 0 0 0 0 0 0 0 0 0 0 0 0 0 0 0 0 0 0 0 0 0 0 0 0 0 0
Wind_Speed
15 15 16 17 18 18 19 20 19 18 17 20 20 20 20 20 20 20 21 21 22 22 23 24 24 24 23 23 24 25 26 25 26
14 14 15 16 17 18 18 19 19 18 19 20 20 19 18 18 19 19 20 22 23 23 23 23 23 23 23 23 22 23 24 24 25
13 13 14 15 16 17 16 17 17 17 19 20 19 18 17 18 18 19 20 21 22 21 22 22 22 22 22 22 23 23 23 23 23
13 12 13 14 16 15 14 15 15 15 16 16 17 17 18 17 17 17 19 20 21 22 22 22 22 22 22 23 23 23 23 23 23
11 10 11 12 14 14 14 14 13 12 12 15 16 17 17 18 17 17 17 19 20 21 22 22 22 22 23 23 23 24 24 24 24
9 9 9 10 11 13 13 14 12 11 13 14 15 16 17 17 17 18 18 18 19 21 22 22 22 23 23 23 24 24 24 25 25
9 8 8 9 9 11 12 12 12 13 13 13 14 15 16 17 17 18 18 19 20 20 21 22 22 23 23 24 24 24 24 25 25
10 8 7 7 8 8 9 9 10 13 13 12 13 14 15 15 16 17 18 18 19 20 20 21 22 22 23 23 24 24 24 25 25
11 10 9 9 9 10 9 8 9 11 12 12 13 14 14 14 15 16 17 17 18 19 19 20 21 21 22 23 23 24 24 25 25
10 9 9 9 8 9 9 8 9 11 11 11 12 13 13 13 14 15 16 17 17 17 18 19 20 20 21 22 23 24 24 25 25
6 7 6 6 7 10 10 11 11 11 11 11 12 13 13 12 13 14 15 16 16 17 18 18 19 20 21 22 23 24 24 25 25
4 5 6 6 7 10 10 10 11 11 11 11 11 12 12 12 12 13 13 14 16 16 17 17 18 20 21 22 23 24 25 25 26
1 1 2 3 4 5 8 8 8 10 10 10 10 10 11 11 11 12 13 13 14 16 16 17 18 19 21 22 23 24 26 27 28
3 2 1 1 2 3 4 4 5 6 7 8 8 9 9 9 10 11 12 13 14 15 16 17 18 19 21 22 24 25 27 28 29
7 5 4 3 2 1 2 2 4 4 5 6 8 8 8 8 9 10 10 12 13 14 15 16 18 18 20 22 25 27 28 30 31
11 8 7 6 4 4 3 4 3 5 5 7 9 12 12 8 9 9 10 11 13 14 15 16 17 19 20 22 25 28 30 31 32
14 12 11 9 8 7 6 6 7 7 4 9 11 14 16 16 11 10 10 11 12 14 15 16 17 18 20 22 25 28 31 32 33
16 15 13 12 11 11 10 9 9 9 10 8 13 17 18 16 17 15 13 12 13 14 15 16 17 18 20 23 26 28 31 33 35
17 16 15 14 13 13 12 11 11 10 11 12 14 15 16 19 20 18 16 15 16 15 16 17 18 18 21 23 25 28 31 33 36
19 18 17 16 15 14 13 12 12 13 13 12 14 15 17 16 21 23 20 19 18 17 17 19 19 21 22 24 26 29 32 35 38
Wind_Direction
72 70 69 69 69 70 71 74 71 60 51 64 62 60 58 47 39 37 45 44 51 45 43 42 39 36 32 29 29 31 32 31 32
74 71 71 71 71 70 71 74 69 58 63 68 62 57 48 40 32 30 36 48 49 43 39 35 33 33 33 28 24 22 24 23 25
74 73 72 73 72 70 70 71 66 58 65 70 64 52 44 38 31 30 34 42 41 39 33 29 25 25 25 25 24 25 22 16 15
79 74 73 75 75 70 68 69 64 56 56 55 53 49 46 37 29 24 27 39 41 37 32 29 27 29 28 27 25 24 22 21 19
75 71 69 74 74 71 69 71 61 42 39 53 52 46 41 37 31 26 23 31 36 36 31 36 35 32 29 29 28 27 25 23 21
71 68 66 67 72 72 70 73 52 32 57 55 51 43 38 36 34 40 40 37 32 34 37 36 34 32 31 30 29 28 27 25 23
72 69 68 70 68 71 74 69 47 50 60 53 44 39 39 38 33 39 43 44 45 41 42 37 35 34 33 31 28 26 24 21 18
79 73 61 63 68 63 67 58 31 62 60 49 45 41 37 38 35 32 42 45 45 44 39 37 34 31 29 26 24 22 20 17 16
92 85 79 76 73 75 71 53 30 58 60 57 47 41 39 37 32 31 37 42 43 40 38 33 31 30 28 26 24 22 20 18 16
95 88 83 81 74 76 70 63 60 64 67 55 46 40 40 40 35 30 29 29 32 31 30 32 31 28 26 23 20 18 16 14 13
95 91 81 76 77 87 88 82 81 71 70 55 47 44 41 39 35 29 23 23 24 25 24 25 25 24 21 17 14 13 11 9 8
104 96 85 80 82 91 83 76 73 65 63 58 48 44 39 33 30 26 22 19 17 21 21 21 18 16 14 12 10 7 5 3 1
178 112 87 54 66 83 91 84 73 75 67 58 50 41 35 31 27 21 16 15 14 13 15 15 11 9 7 5 4 2 359 357 356
239 252 261 320 45 83 88 69 75 61 51 46 44 42 38 35 23 12 9 7 5 4 4 4 4 3 1 359 358 357 355 353 351
255 255 257 264 260 333 20 45 8 31 46 32 23 20 17 20 17 8 2 358 353 354 356 356 355 357 356 355 353 351 349 347 346
258 259 262 268 258 262 285 312 330 338 356 358 351 345 348 353 356 2 359 353 347 344 345 347 349 351 351 350 348 347 346 344 342
259 260 262 264 267 269 271 279 297 309 311 322 331 326 325 325 331 337 342 345 342 336 337 340 343 344 345 346 345 344 343 341 340
260 261 262 264 267 266 270 274 280 286 296 309 319 320 318 321 320 318 325 330 333 334 335 335 337 340 341 341 341 341 341 339 338
260 260 259 260 264 265 268 270 277 280 278 298 305 324 326 318 316 318 316 319 323 326 327 330 332 335 336 337 338 338 338 337 336
261 260 259 259 260 260 262 266 271 277 282 287 299 308 316 322 318 313 311 312 316 322 324 327 329 330 333 334 335 335 335 333 332